Simultaneous Nadir Overpasses (SNOs) Predictions

Prediction of SNOs between METOP-A and TERRA Satellite Orbit:

Table of predicted SNOs for the next 14.0 days since TLE Epoch: 12/26/2020
Index Date (METOP-A) Time (METOP-A) Lat,Lon (METOP-A) SZA (METOP-A ) Date (TERRA) Time (TERRA) Lat,Lon (TERRA) SZA (TERRA ) Distance(km) Time Diff (sec)
1 12/26/2020 11:54:37 -81.36,-130.70 72.65 12/26/2020 11:55:28 -81.36,-130.82 72.64 2.03 51
2 12/26/2020 12:45:18 81.36, 36.60 107.35 12/26/2020 12:44:55 81.35, 36.58 107.33 1.55 23
3 12/29/2020 07:29:00 -81.36, -64.34 72.83 12/29/2020 07:29:43 -81.35, -64.51 72.84 3.04 43
4 12/29/2020 08:19:40 81.35, 103.31 107.20 12/29/2020 08:19:09 81.36, 103.24 107.18 1.63 31
5 01/01/2021 03:03:23 -81.36, 2.00 73.08 01/01/2021 03:03:57 -81.37, 2.13 73.05 2.14 34
6 01/01/2021 03:54:03 81.35, 169.62 106.95 01/01/2021 03:53:24 81.35, 169.47 106.91 2.44 39
7 01/03/2021 22:37:46 -81.36, 68.32 73.38 01/03/2021 22:38:12 -81.35, 68.34 73.37 0.91 26
8 01/03/2021 23:28:25 81.35,-124.09 106.64 01/03/2021 23:27:37 81.36,-123.95 106.64 2.35 48
9 01/06/2021 18:12:07 -81.35, 135.01 73.72 01/06/2021 18:12:25 -81.36, 134.90 73.71 2.22 18



Historial Predications of SNOs between METOP-A and TERRA
